Location: Branche des Alpilles
(43.6087°N, 4.6976°E)
Time: 04:01:32
(UTC+00:00)

Meteor 1-5 Rocket - Pass Details

Date: 30 November 2020
Orbit: 788 x 916 km, 81.2° (Epoch: 24 January)

Event Time Altitude Azimuth Distance (km) Brightness Sun altitude
Rises 18:05:24 0° 350° (N) 3,549 7.4 -21.0°
Reaches altitude 10° 18:07:54 10° 351° (N) 2,593 6.7 -21.5°
Maximum altitude 18:13:51 82° 79° (E) 901 4.2 -22.6°
Drops below altitude 10° 18:19:34 10° 168° (SSE) 2,501 6.6 -23.6°
Sets 18:21:57 0° 169° (S) 3,414 7.3 -24.0°
